Weather in Kabanbai

Kazakhstan     46°04′33″N   82°05′05″E
temp.,
°C
wind,
m/s
gust,
m/s
humid.,
%
clouds,
%
prec.,
mm/h
press.,
hPa
HPBL,
m
20 june, sun
sun2000:00+18nnw336468 0.0 100419
03:00+18nne226770 0.2 100416
06:00+17wnw12167366 0.2 1008555
09:00+15nw121579100 1.3 1012790
12:00+14wnw71372100 2.9 1015833
15:00+16n8125890 0.3 1016589
18:00+17nnw69455 0.3 1015591
21:00+15s44480 0.0 101627
21 june, mon
mon2100:00+14se44510 0.0 101632
03:00+14ese34470 0.0 101539
06:00+15ese33446 0.0 101452
09:00+19sse464097 0.0 1012509
12:00+20wsw244148 0.0 1011587
15:00+20nw324242 0.0 1009388
18:00+22wnw1336100 0.0 1007328
21:00+18wnw455795 0.0 100860
22 june, tue
tue2200:00+15ese227682 0.0 100912
03:00+15w1182100 0.0 101113
06:00+15ene1184100 0.7 101259
09:00+17nnw336791 0.1 1013591
12:00+17w226431 0.1 1014421
15:00+19nnw445263 0.0 1014709
18:00+19nnw244795 0.0 1014616
21:00+17ese125198 0.0 101511
23 june, wed
wed2300:00+16wsw1158100 0.0 101514
03:00+16w1160100 0.0 101533
06:00+16e225994 0.0 101640
09:00+17n1149100 0.0 1016459
12:00+18n2341100 0.0 1015679
15:00+20nw22379 0.0 1014789
18:00+21n3237100 0.0 1012508
21:00+18nne224660 0.0 101321
24 june, thu
thu2400:00+18se224455 0.0 101214
03:00+18se4546100 0.0 100959
06:00+17sse4754100 0.0 1008136
09:00+17nnw796794 0.0 1010391
12:00+14nnw5587100 1.6 1012401
15:00+14nne3489100 3.4 1012379
18:00+13nw61088100 5.0 1014493
21:00+13s4484100 0.9 1015250